Lake Park, FL (33403)

1:35 AM EST on February 09, 2016 (GMT -0500)
Rybovich Boat Company | | Change Station
CLOSE
Current Station
Personal Weather Station
Location: West Palm Beach, FL
Elevation: 10 ft
Nearby Weather Stations
Active Advisory: Coastal Hazard Statement

Elev 10 ft 26.75 °N, 80.05 °W | Updated 0 second ago

Partly Cloudy
Partly Cloudy
61.0 °F
Feels Like 61.0 °F
N
5.1
Wind Variable Wind from SW
Gusts 9.0 mph

Today
High -- | Low -- °F
--% Chance of Precip.
Yesterday
High -- | Low -- °F
Precip. -- in
Pressure 29.94 in
Visibility 10.0 miles
Clouds Scattered Clouds 5500 ft
Scattered Clouds 25000 ft
Dew Point 56 °F
Humidity 85%
Rainfall 0.00 in
Snow Depth Not available.
7:01 AM 6:08 PM
New Moon, 1% visible
METAR KPBI 090553Z 21011KT 10SM SCT055 SCT250 16/12 A2994 RMK AO2 SLP138 T01560122 10172 20150 58017
Pressure 29.94 in
Visibility 10.0 miles
Clouds Scattered Clouds 5500 ft
Scattered Clouds 25000 ft
Dew Point 56 °F
Humidity 85%
Rainfall 0.00 in
Snow Depth Not available.
7:01 AM 6:08 PM
New Moon, 1% visible
METAR KPBI 090553Z 21011KT 10SM SCT055 SCT250 16/12 A2994 RMK AO2 SLP138 T01560122 10172 20150 58017

10-Day Weather Forecast

Almanac

Astronomy

Feb. 09, 2016 Rise Set
Actual Time
Civil Twilight
Nautical Twilight
Astronomical Twilight
Moon
Length of Visible Light
Length of Day
Tomorrow will be .
, % of the Moon is Illuminated

Today's Extremes

State Highs State Lows

Community

WunderPhotos

Upload Photos

1,891,571 photos uploaded!

WunderBlog® & News

Nearby

Air Quality

  Air Quality AQ Index Pollutant
Not available.

Snow Depth

Station Depth Elevation

Earthquake Activity

City Distance Mag. Time & Date
Minimum magnitude displayed is 2.5.

Coastal Water Temperatures

Place Temperature

Stations

Nearby Weather Stations

Station Location Temp. Windchill Dew Point Humidity Wind Precip. Elev Updated Type
                   

Watches & Warnings

Coastal Hazard Statement
Issued: 3:55 PM EST Feb. 8, 2016 – National Weather Service

... High rip current risk remains in effect through Tuesday
evening...

* timing... through Tuesday evening.

* Impacts... strong rip currents creating extremely dangerous
conditions for swimmers.

Precautionary/preparedness actions...

There is a high risk of rip currents.

Rip currents are powerful channels of water flowing quickly away
from shore... which occur most often at low spots or breaks in The
Sandbar and in the vicinity of structures such as groins...
jetties and piers. Heed the advice of lifeguards... beach patrol
flags and signs.

If you become caught in a rip current... Yell for help. Remain
calm... do not exhaust yourself and stay afloat while waiting for
help. If you have to swim out of a rip current... swim parallel to
shore and back toward the beach when possible. Do not attempt to
swim directly against a rip current as you will tire quickly.